Presure
166 194 179 177 190 165 160 198 178 200 181 189 184 191 191 177 172 143 177 174 164 154 127 164 160 175 154 164 163 165 138 178 179 160 169 177 184 177 167 197 178 196 195 197 176 143 169 169 179 132 167 184 156 174
203 178 162 168 178 195 201 183 171 170 181 201 181 183 182 191 190 194 204 131 191 172 172 173 187 197 180 178 179 172 170 169 189 211 122 191 178 168 174 182 141 184 198 146 171 169 203 210 189 133 195 111 154 140
191 175 178 180 191 166 175 183 201 198 188 176 183 188 186 182 179 181 191 182 202 176 187 165 165 125 191 191 184 177 183 188 187 185 186 193 175 177 171 188 200 196 189 179 200 134 179 192 193 193 192 129 138 142
205 187 181 195 181 185 199 175 174 189 206 199 175 171 171 177 190 192 166 189 178 187 170 188 185 191 192 162 183 189 196 175 173 178 188 196 193 185 187 188 159 201 183 187 169 181 172 160 179 200 151 157 138 172
209 190 204 179 193 178 192 175 184 203 179 183 205 199 180 182 180 180 178 179 184 189 175 169 161 163 167 179 185 188 195 201 200 194 192 178 193 174 173 175 104 117 177 169 181 201 194 200 121 145 140 210 199 205
216 189 190 211 126 189 194 178 196 185 212 196 182 191 202 210 179 187 189 180 184 179 186 184 160 169 168 184 183 182 185 188 187 188 185 184 190 183 186 152 129 110 82 202 187 110 198 196 209 134 168 200 135 198
187 215 238 207 206 165 199 198 200 175 207 187 197 182 182 201 200 203 211 188 186 192 185 175 186 145 138 163 178 188 189 193 200 187 186 188 193 190 176 155 128 110 165 145 199 203 190 205 201 118 206 211 209 207
218 212 213 179 207 188 192 214 197 206 156 194 207 181 203 169 168 173 222 190 203 218 188 179 179 210 182 150 178 152 180 190 189 191 187 192 192 184 172 186 139 174 199 198 195 205 209 176 209 210 205 206 203 170
225 221 224 225 197 210 223 213 166 205 185 203 205 188 176 187 185 202 206 204 175 179 191 187 195 200 186 187 82 193 200 174 205 203 210 212 193 186 149 187 186 126 193 200 198 194 117 202 124 204 175 218 181 192
249 241 229 247 219 228 194 216 221 213 201 231 182 203 203 213 200 219 203 182 185 179 203 225 207 202 197 226 190 198 208 204 200 192 185 122 94 206 143 92 203 195 206 209 204 112 129 216 148 216 183 215 219 226
226 230 231 238 227 237 230 193 237 225 205 190 197 225 222 224 221 202 229 205 206 212 229 204 220 205 210 204 189 244 243 212 209 216 200 197 197 198 188 198 116 121 203 180 211 161 215 209 210 210 223 201 217 217
238 194 226 252 231 218 239 239 253 210 226 222 220 206 210 232 216 239 247 251 248 224 232 243 252 228 244 242 238 239 254 265 283 281 211 210 210 200 200 198 201 201 206 134 140 214 153 211 222 225 223 103 100 140
268 238 232 237 241 257 217 229 255 245 246 241 241 222 238 261 266 223 237 299 288 277 270 251 281 237 244 257 283 286 272 233 251 271 237 186 268 211 208 210 145 139 139 121 123 185 226 89 110 154 156 129 142 303
304 293 260 255 239 243 243 237 226 232 250 204 221 253 233 239 248 245 237 250 232 235 241 225 239 230 232 233 238 218 279 267 285 251 287 259 242 252 245 287 295 303 220 214 213 144 299 120 148 241 293 233 255 248
313 291 317 290 294 322 226 289 266 286 315 298 261 258 254 243 282 269 250 247 255 271 190 256 273 276 264 270 251 249 248 249 254 173 228 239 235 244 251 231 257 252 256 253 250 198 266 154 186 248 247 259 266 219
324 309 283 286 284 289 274 283 318 276 307 335 299 308 316 323 286 279 164 139 145 155 257 261 262 294 292 270 266 287 273 252 241 270 248 273 264 260 291 305 283 254 283 253 261 238 269 267 261 265 285 182 274 317
292 289 288 293 311 317 315 304 315 305 295 306 328 318 282 279 315 301 326 331 320 297 330 326 173 292 274 257 267 307 302 304 266 265 302 345 341 261 356 348 331 298 331 310 121 360 293 344 355 311 308 292 286 353
404 395 379 393 328 311 298 316 314 324 326 319 340 335 307 292 105 91 152 294 319 148 322 329 315 322 340 337 334 346 298 319 334 330 272 294 313 324 318 265 288 266 329 334 333 319 324 288 315 315 316 313 322 328
377 365 370 374 377 380 387 411 405 407 410 369 369 362 319 322 277 310 307 314 298 297 299 302 310 310 193 87 302 314 320 305 305 308 317 326 292 310 200 276 331 319 308 305 316 335 375 368 380 374 436 437 440 437
361 361 340 342 343 346 365 376 376 375 373 420 433 421 412 407 413 410 106 102 303 274 432 308 321 151 322 395 382 309 305 322 318 277 304 273 349 355 342 330 344 348 356 392 340 327 449 455 449 439 437 432 434 435
380 369 358 348 341 346 342 346 352 352 350 368 76 303 83 200 223 406 400 391 391 396 404 387 101 335 325 415 416 408 411 224 102 85 231 216 136 196 445 454 453 460 449 436 441 447 438 434 431 434 424 420 420 435
394 387 372 355 347 345 358 354 344 343 340 342 335 335 355 363 410 434 426 428 426 414 315 386 377 378 383 384 392 388 388 400 411 339 367 418 425 447 447 277 435 437 433 426 424 415 414 413 409 415 341 422 425 353
373 375 380 381 379 374 376 356 353 346 351 353 342 356 354 348 341 340 349 365 411 412 406 405 410 411 234 118 116 87 98 203 415 426 419 424 429 424 422 422 418 410 408 396 387 405 409 401 408 420 429 273 431 431
387 383 380 374 464 465 469 401 410 394 386 463 447 430 420 402 81 385 300 388 357 149 334 386 201 374 115 109 115 316 347 382 392 398 398 406 356 402 402 404 404 401 391 385 398 401 406 415 411 412 408 413 371 193
412 390 372 365 360 355 356 358 360 366 374 380 444 449 444 431 422 404 398 290 101 350 350 354 345 362 191 235 124 380 372 375 387 394 389 401 404 405 407 387 392 397 369 389 397 400 396 390 395 413 421 421 423 429
340 340 327 332 336 338 342 347 362 371 415 436 437 444 444 433 428 407 422 416 403 396 404 392 355 355 359 359 361 360 95 146 371 373 435 447 439 419 397 457 392 373 364 381 368 364 404 425 426 422 423 419 422 428
309 303 315 322 333 356 353 343 342 343 347 351 362 423 417 416 196 74 418 357 404 407 405 409 413 216 377 227 89 315 464 405 360 369 377 379 370 370 369 366 360 347 339 376 418 420 417 413 229 414 419 421 426 432
323 322 326 340 345 341 336 336 334 334 336 343 349 414 415 413 418 416 424 423 229 424 136 447 442 437 432 428 191 109 454 456 451 366 367 370 352 201 346 341 339 362 407 407 415 419 251 406 411 407 419 426 429 435
331 337 345 349 342 332 328 328 328 331 345 374 421 416 414 422 430 402 400 402 410 424 440 444 428 424 389 262 424 435 437 442 368 348 123 130 157 326 335 365 400 406 453 413 392 394 399 409 418 420 423 412 407 403
341 343 343 339 331 328 322 328 338 338 359 423 444 437 439 394 387 392 397 402 411 426 440 449 444 428 435 436 276 451 445 422 366 103 113 331 448 469 465 504 463 412 408 255 391 393 396 399 398 392 382 377 376 388
333 333 332 333 338 337 346 338 338 414 401 396 399 405 395 393 399 377 395 400 418 428 430 422 419 416 424 434 406 397 354 355 285 105 116 481 447 411 404 394 388 378 380 380 362 361 362 389 406 400 390 389 385 378
339 347 347 344 345 350 379 419 418 401 408 410 386 383 384 388 382 372 376 390 366 361 355 352 334 345 337 331 375 401 412 371 371 370 397 395 380 374 366 361 390 396 393 396 399 394 368 363 365 366 340 326 317 310
471 461 448 441 437 440 411 404 448 406 388 384 371 365 347 344 341 323 332 399 356 359 359 364 362 362 373 391 393 435 388 381 382 382 373 377 386 381 374 370 363 361 362 364 358 331 318 312 310 307 303 298 293 294
Wind_Speed
69 68 71 59 63 62 58 57 59 53 58 56 54 52 51 51 51 41 50 49 45 41 33 40 40 42 38 41 40 38 29 39 40 32 38 40 40 36 34 39 33 30 30 37 31 32 41 37 26 28 34 45 37 37
73 77 71 73 73 66 64 68 66 65 65 59 61 58 57 55 53 55 54 41 53 52 52 52 48 45 47 47 47 44 46 44 44 43 33 44 42 43 42 42 36 25 41 47 37 38 47 48 35 34 40 31 29 25
82 80 81 81 76 71 76 75 67 70 73 68 68 67 62 60 58 58 59 55 55 56 57 51 54 40 55 51 52 51 49 49 48 48 48 48 44 47 46 50 51 56 38 36 55 36 38 37 41 50 32 33 29 38
88 87 89 82 85 82 76 81 79 77 74 77 72 69 67 66 65 66 62 64 58 57 58 59 62 64 65 58 58 58 58 50 49 50 54 57 53 50 62 62 40 51 46 45 50 40 48 46 41 59 45 49 43 58
89 92 88 94 87 90 85 87 85 81 86 81 81 79 76 73 67 69 70 70 68 65 58 62 65 68 69 70 69 68 67 68 65 61 62 59 59 43 59 67 27 12 49 41 47 67 52 69 37 46 52 79 58 68
94 98 94 94 54 93 91 95 89 93 89 89 87 86 85 83 78 79 77 78 79 66 66 66 67 77 80 82 76 72 68 66 62 62 63 64 63 50 67 73 17 37 5 70 55 41 67 64 80 49 51 71 39 64
99 96 102 98 96 87 95 96 96 97 96 96 93 88 90 89 86 86 85 84 85 84 76 65 68 56 68 73 80 82 76 76 80 70 72 75 73 66 63 71 23 26 57 48 75 76 75 81 78 35 82 88 89 83
110 104 101 79 103 105 103 102 104 107 79 100 102 96 98 80 80 86 99 92 88 88 76 75 76 77 88 68 93 54 71 78 74 77 77 83 80 71 70 94 59 73 93 85 69 83 89 73 91 91 80 86 89 59
114 114 113 115 110 108 109 109 78 107 105 108 104 102 88 99 95 101 101 95 82 82 86 87 90 91 91 96 29 98 96 72 96 94 95 94 89 86 64 90 81 39 87 92 86 83 37 90 46 87 72 104 70 82
127 127 125 124 112 119 114 110 118 114 115 116 104 115 114 113 112 109 108 94 94 87 93 99 95 100 103 99 97 103 100 101 99 90 82 43 20 99 61 34 100 100 102 103 98 38 53 109 62 108 79 102 101 109
119 123 125 130 119 129 123 118 131 119 120 116 117 119 120 120 117 115 118 107 106 105 109 106 109 110 108 102 95 104 101 107 101 102 101 96 100 110 108 110 34 39 106 86 107 72 112 107 107 102 115 95 102 99
127 118 119 139 123 112 131 134 140 124 122 123 120 120 119 123 118 129 132 130 123 115 115 124 126 116 115 115 114 113 119 115 109 107 105 98 108 114 113 109 111 110 111 60 57 113 70 111 118 119 117 28 30 59
125 128 128 127 126 132 115 124 137 134 138 136 135 125 131 134 129 111 106 111 115 119 119 118 117 113 115 125 124 120 118 109 108 106 104 72 111 116 112 117 43 38 41 39 40 92 119 27 43 64 73 52 52 121
121 123 126 127 128 131 131 131 122 126 132 123 125 132 123 122 120 121 115 117 113 115 118 117 118 116 114 115 115 110 123 118 117 103 109 113 105 102 104 108 110 114 117 114 110 35 114 50 52 114 120 105 112 107
115 120 125 120 122 125 118 127 126 131 133 132 137 133 121 115 116 122 116 115 118 124 71 119 121 123 122 124 123 122 120 122 115 72 107 104 103 102 104 109 106 105 109 105 110 85 109 66 73 110 112 113 114 80
113 116 112 113 119 118 120 123 125 125 126 120 125 116 111 104 112 113 39 44 60 58 122 124 124 124 124 122 124 123 122 115 118 121 103 117 111 111 116 121 116 105 116 109 107 100 109 109 109 108 106 52 84 110
115 110 114 114 114 114 117 120 121 124 126 121 111 107 105 96 98 104 105 104 110 116 110 111 51 124 127 120 119 120 118 117 120 120 116 110 110 112 102 103 106 119 107 108 44 99 102 99 98 104 106 109 109 97
78 81 91 86 107 114 115 115 117 119 119 117 110 102 102 98 26 17 47 107 106 37 109 109 118 120 116 113 109 108 115 109 109 109 92 109 105 102 100 92 115 104 98 97 98 100 96 81 96 99 98 97 96 97
76 80 79 80 83 85 85 79 84 88 89 101 96 91 106 104 89 102 104 107 108 110 113 115 118 113 68 32 107 106 107 108 107 106 108 108 108 105 63 107 105 101 103 102 100 99 95 100 95 92 83 81 80 75
72 74 79 80 83 85 83 81 82 85 87 73 70 70 75 79 75 77 20 6 94 87 84 114 112 56 113 95 94 114 112 112 113 106 103 84 109 108 107 105 105 104 93 88 97 99 74 69 68 72 72 71 70 66
64 67 72 75 81 82 83 79 77 75 77 74 17 66 27 38 35 66 68 73 81 83 80 85 38 108 60 79 81 86 85 35 19 31 44 43 37 43 77 73 73 73 73 72 69 64 62 62 61 61 63 61 61 58
55 62 67 73 74 74 73 70 70 72 76 72 72 75 70 65 58 52 55 63 67 67 60 74 77 81 81 84 83 86 88 81 77 66 71 76 74 68 67 56 67 62 60 59 57 55 52 53 55 54 44 53 54 46
56 57 58 60 63 64 62 63 67 69 72 68 71 69 68 68 65 67 71 65 55 50 55 62 63 62 41 30 32 25 24 47 69 64 64 62 60 60 59 57 56 55 53 48 51 49 48 50 51 50 48 37 48 46
49 50 49 50 42 42 42 43 46 51 56 49 54 59 59 60 16 67 50 61 59 37 57 60 36 70 34 29 40 61 62 64 61 60 60 59 53 55 55 53 50 48 46 44 44 45 46 44 44 44 45 46 45 37
26 25 30 31 36 40 43 46 50 53 52 53 46 47 46 51 58 64 65 44 39 57 64 61 63 68 54 58 46 61 59 57 58 57 53 54 54 51 50 49 48 43 40 40 42 43 41 41 43 43 41 42 42 41
23 25 36 42 44 44 44 42 41 40 36 38 40 43 42 46 51 53 54 51 55 57 56 59 66 66 65 66 63 56 14 26 56 52 43 44 48 48 45 46 38 31 42 42 41 41 41 39 40 39 37 37 37 37
32 43 47 44 41 37 34 35 38 39 39 40 39 39 41 45 27 8 43 38 51 49 50 54 54 25 44 24 9 32 44 47 51 46 42 41 38 40 41 38 35 35 37 39 40 39 36 33 27 33 33 33 33 32
39 48 47 44 38 37 34 35 35 37 40 45 44 35 40 41 45 43 41 39 22 41 7 50 47 40 37 37 24 22 42 41 44 37 31 31 35 27 41 39 34 35 33 32 32 30 24 24 25 26 26 25 25 23
45 47 46 38 34 33 33 37 38 39 43 41 41 42 41 37 33 26 28 30 33 38 41 40 33 34 38 29 43 44 40 39 34 31 17 20 23 41 39 36 33 31 32 23 20 19 19 18 17 16 14 9 8 6
39 42 36 33 34 32 35 40 38 40 43 37 36 36 24 14 18 21 24 24 26 27 26 29 32 36 37 38 28 37 35 27 25 25 22 24 29 30 29 29 24 19 15 22 13 12 9 7 5 2 0 1 3 4
34 37 36 37 36 38 41 41 40 38 26 22 21 19 14 14 7 17 26 29 31 27 24 20 19 20 22 22 17 13 16 21 19 31 31 29 16 11 9 8 7 6 6 4 2 2 3 2 3 7 7 7 8 8
35 37 39 35 34 42 48 37 35 21 21 17 12 16 14 14 7 15 17 18 5 5 6 5 7 9 11 15 7 13 16 12 10 9 6 5 3 3 3 3 4 5 6 7 7 9 12 11 12 12 16 12 9 4
26 31 35 33 27 23 27 35 29 9 13 12 6 4 5 2 8 7 8 17 7 6 4 6 3 5 7 6 4 10 2 2 2 2 3 4 7 10 11 12 12 11 11 12 15 19 13 10 8 7 5 2 3 6
Wind_Direction
261 262 265 264 266 263 264 270 267 274 271 275 271 276 277 272 275 280 280 281 282 284 286 283 285 283 289 291 293 296 298 297 296 297 301 299 301 297 289 314 308 314 314 331 270 296 302 291 282 299 308 323 301 297
257 260 262 264 265 266 268 267 267 268 270 271 270 272 273 276 277 284 289 279 284 282 285 287 285 286 282 284 285 289 292 292 295 306 304 299 298 292 293 302 287 291 321 299 267 276 329 320 321 295 326 294 315 308
255 258 259 260 263 263 266 267 270 266 268 268 271 272 271 271 271 273 278 273 284 278 286 284 286 280 289 287 283 286 283 286 289 291 294 301 289 293 292 307 310 305 312 301 320 308 291 310 312 321 313 312 302 310
257 256 258 257 260 262 263 265 267 268 270 268 267 267 269 269 272 275 271 277 273 278 279 284 288 290 290 282 283 287 292 288 288 286 297 301 300 298 305 306 278 304 292 297 305 285 286 272 295 318 309 309 305 311
258 254 257 258 257 261 261 265 265 266 268 269 271 267 269 270 268 272 274 274 276 277 275 279 281 283 283 286 287 288 292 293 293 295 297 294 299 291 295 301 253 289 303 290 296 308 312 311 303 305 298 314 311 315
260 256 255 259 262 257 258 263 263 263 266 266 267 266 268 273 271 271 270 273 275 274 277 278 281 286 283 284 284 286 288 291 291 294 294 294 298 294 301 295 178 273 297 304 298 289 306 306 307 296 306 309 303 307
256 257 258 257 257 261 258 261 261 264 268 264 266 266 267 270 272 275 273 270 274 274 276 275 275 273 288 282 282 285 287 290 288 292 293 295 295 298 297 279 278 267 297 292 301 304 299 302 304 302 304 304 303 306
259 257 256 260 256 255 256 259 260 262 262 265 267 265 266 267 268 270 274 270 270 273 273 276 276 268 276 285 279 284 286 287 287 290 291 290 292 294 286 288 296 298 296 300 302 302 301 300 301 300 302 303 300 302
258 259 260 256 254 259 260 259 259 263 262 261 261 265 264 265 266 264 266 269 272 275 273 273 275 267 273 274 297 278 280 280 283 286 281 279 289 292 287 292 281 266 294 294 298 299 279 298 290 300 295 296 296 298
259 256 260 259 260 260 255 261 260 259 259 266 263 262 261 263 265 267 264 271 272 274 271 280 270 268 269 269 276 274 273 276 280 284 288 288 274 280 284 272 280 290 288 288 294 269 288 291 290 294 296 298 301 299
255 258 259 261 261 262 263 256 266 261 260 260 261 267 267 268 268 264 272 268 267 269 278 272 273 269 272 274 274 277 272 273 273 268 280 285 284 279 286 285 285 290 292 293 290 292 290 293 293 296 293 291 299 300
257 248 260 260 261 256 264 266 264 257 264 263 262 259 265 270 264 275 277 277 278 275 277 276 274 274 276 276 273 274 280 276 280 277 274 272 269 275 278 285 285 288 287 291 286 288 283 292 289 289 290 283 290 291
255 254 258 260 261 260 258 263 262 264 264 266 268 262 270 269 271 269 276 273 271 270 272 274 273 274 276 277 276 275 278 271 277 278 273 282 274 274 277 277 288 268 278 271 268 280 282 292 277 279 289 290 285 286
258 257 255 255 257 258 259 262 262 263 263 259 263 265 265 268 271 271 271 271 271 272 272 272 273 273 275 275 276 273 276 276 276 279 276 277 276 276 276 277 278 277 278 281 284 259 282 282 271 284 284 288 286 288
256 257 256 260 260 261 257 261 261 263 267 262 262 264 267 270 268 269 270 269 269 269 266 270 269 270 271 271 275 276 277 279 280 284 276 277 277 277 277 276 277 276 276 277 277 278 280 279 283 282 285 286 287 292
256 256 257 257 259 260 260 261 261 262 263 264 264 267 271 268 267 266 258 257 263 268 270 271 271 268 270 270 271 271 274 278 280 279 280 281 279 280 278 277 277 276 280 277 280 279 282 284 285 287 287 284 285 284
256 257 257 257 257 258 259 260 260 262 263 265 267 266 266 266 268 266 269 269 269 268 268 269 262 268 269 271 273 272 274 275 275 276 278 279 279 282 280 280 278 279 277 277 281 286 280 284 286 281 282 284 287 286
256 256 255 256 257 257 257 259 260 261 262 264 265 266 265 265 243 283 280 266 267 252 270 270 267 269 273 274 276 276 273 276 276 276 275 277 277 277 277 276 278 283 282 283 283 284 284 287 284 283 282 282 282 283
253 254 256 257 258 258 259 260 261 263 265 266 267 266 265 264 262 264 263 264 266 267 267 267 269 271 275 292 274 274 273 271 272 272 275 276 277 276 285 280 280 282 283 283 283 285 287 287 287 286 289 288 288 288
250 252 253 255 256 258 259 259 261 263 265 269 268 269 269 269 268 266 225 235 264 263 264 268 270 266 272 275 275 272 272 273 274 275 275 274 277 278 280 281 283 284 284 285 286 286 289 290 288 287 287 287 288 289
249 250 250 252 254 256 257 259 261 265 267 268 241 269 251 257 255 269 269 267 265 265 266 268 265 269 275 273 272 272 273 285 352 262 278 287 313 299 283 284 283 283 286 288 289 289 289 288 286 285 285 286 287 288
251 250 250 252 255 258 260 265 266 266 266 268 267 268 269 268 269 269 267 263 263 266 270 271 270 270 271 271 272 272 274 277 278 278 281 284 286 285 284 284 287 290 290 290 290 289 289 288 285 285 284 283 281 285
249 251 253 256 259 262 265 266 267 266 267 267 267 268 268 267 267 265 265 268 273 274 269 266 268 270 270 237 281 265 292 297 286 289 289 288 286 287 287 287 287 287 290 292 290 291 287 282 283 285 286 284 283 283
249 253 257 261 254 262 263 272 270 270 271 265 268 269 269 271 262 269 267 268 265 259 266 270 267 268 271 291 294 284 286 285 289 288 285 285 285 285 286 288 288 287 288 288 290 286 285 286 287 286 284 282 280 280
250 252 259 263 264 264 264 267 271 274 275 271 272 271 269 269 265 265 269 259 243 268 263 266 266 270 278 274 280 282 285 288 285 286 292 291 289 287 284 284 288 293 293 289 285 284 287 288 287 291 288 286 284 280
259 260 257 256 260 264 268 273 281 285 282 275 274 273 269 264 264 267 269 273 273 272 272 272 265 267 271 274 278 281 266 284 287 290 285 279 278 285 289 283 292 295 288 289 292 289 295 295 290 287 285 282 280 278
255 254 258 263 270 275 276 275 277 282 285 285 284 277 276 275 269 315 279 276 276 279 283 281 282 285 285 290 284 287 283 280 283 286 285 287 295 293 287 284 281 283 288 293 294 295 296 295 302 285 282 278 274 270
265 263 265 267 272 274 275 279 278 279 280 283 284 275 273 275 276 282 291 295 295 286 292 278 280 283 279 278 272 269 279 277 273 283 289 286 277 287 276 281 294 296 294 294 296 296 296 291 284 286 283 278 275 276
253 258 263 271 273 273 277 276 277 283 289 286 274 274 278 288 304 304 297 297 298 294 287 278 268 269 269 278 269 273 274 277 269 274 274 285 291 281 288 296 290 294 290 297 296 297 302 304 300 294 288 281 269 257
254 263 271 274 274 277 278 280 283 286 294 291 279 285 297 296 289 301 299 296 296 290 283 276 272 266 267 271 272 275 279 284 290 276 274 289 287 285 281 275 282 299 296 287 299 313 331 331 336 341 241 195 187 193
270 274 277 278 280 282 282 279 282 297 297 294 295 298 301 300 304 279 293 291 296 298 298 298 297 293 288 282 285 293 291 288 273 268 280 294 290 283 296 304 314 324 330 336 12 31 50 32 83 99 102 112 127 142
273 275 278 283 285 284 290 291 287 287 292 292 276 291 297 299 222 262 304 309 7 356 359 345 271 277 261 270 256 312 298 279 301 292 283 296 353 10 25 18 46 59 68 69 73 90 105 101 100 107 97 91 81 66
281 268 268 273 277 276 261 271 280 224 242 250 256 333 81 7 358 68 42 312 18 15 22 318 226 252 285 307 309 316 86 98 97 92 69 76 92 96 103 106 107 105 104 108 113 105 104 97 90 84 74 36 302 305